Regional Weather Roundup
Issued by NWS Little Rock, AR

Home | Current Version | Previous Version | Graphics & Text | Print | Product List | Glossary On
Versions: 1 2 3 4 5 6 7 8 9 10 11 12 13 14 15 16 17 18 19 20 21 22 23 24 25 26 27 28 29 30 31 32 33 34 35 36 37 38 39 40 41 42 43 44 45 46 47 48 49 50
256
ASUS44 KLZK 201905
RWRLZK

WEATHER ROUNDUP FOR ARKANSAS
NATIONAL WEATHER SERVICE LITTLE ROCK AR
200 PM CDT THU JUL 20 2017

NOTE: "FAIR" INDICATES FEW OR NO CLOUDS BELOW 12,000 FEET WITH NO
SIGNIFICANT WEATHER AND/OR OBSTRUCTIONS TO VISIBILITY.

ARZ001-003-010-029-202000-
NORTHWEST ARKANSAS

CITY           SKY/WX    TMP DP  RH WIND       PRES   REMARKS
FAYETTEVILLE   SUNNY     91  75  59 SW10      30.11F HX 101
FORT SMITH     MOSUNNY   95  73  48 SW7       30.07F HX 104
HARRISON       MOSUNNY   93  70  46 VRB5      30.12F HX  99
BENTONVILLE    SUNNY     91  72  52 SW8       30.13F HX  98
ROGERS         MOSUNNY   93  72  50 S9        30.12F HX 101
SILOAM SPGS    MOSUNNY   93  70  46 S12G18    30.10F HX  99
HIGHFILL       SUNNY     94  71  47 SW10      30.11F HX 101
$$

ARZ004-005-016-202000-
NORTH CENTRAL ARKANSAS

CITY           SKY/WX    TMP DP  RH WIND       PRES   REMARKS
BATESVILLE     MOSUNNY   91  73  55 CALM      30.08F HX 100
FLIPPIN        MOSUNNY   95  68  41 S5        30.07F HX  99
MTN HOME       MOSUNNY   91  74  57 CALM      30.09F HX 100
$$

ARZ040-041-202000-
WEST CENTRAL ARKANSAS

CITY           SKY/WX    TMP DP  RH WIND       PRES   REMARKS
MENA           SUNNY     95  77  55 W8        30.12F HX 109
MOUNT IDA      SUNNY     95  70  44 VRB5      30.08F HX 101
$$

ARZ009-017-025-026-028-202000-
NORTHEAST ARKANSAS

CITY           SKY/WX    TMP DP  RH WIND       PRES   REMARKS
CORNING        LGT RAIN  93  79  62 SW5       30.06F HX 110
JONESBORO      MOSUNNY   95  77  55 SW6       30.06F HX 109
WALNUT RIDGE   MOSUNNY   95  75  52 NW5       30.06F HX 107
BLYTHEVILLE    MOSUNNY   92  76  59 W5        30.07F HX 104
$$

ARZ022-023-033-042-044-202000-
CENTRAL ARKANSAS

CITY           SKY/WX    TMP DP  RH WIND       PRES   REMARKS
LITTLE ROCK    PTSUNNY   95  74  50 SW8       30.08F HX 105
N LITTLE ROCK    N/A     94  73  51 CALM      30.06F HX 103
JACKSONVILLE   MOSUNNY   96  73  48 S3        30.08F HX 105
CONWAY           N/A     97  73  46 W7G13     30.06F HX 107
SEARCY         CLOUDY    94  77  57 S5        30.09F HX 108
HOT SPRINGS    MOSUNNY   95  75  52 S8        30.09F HX 107
RUSSELLVILLE   MOSUNNY   93  76  57 S3        30.06F HX 105
CLINTON        FAIR      93  75  55 VRB5G13   30.08F HX 104
$$

ARZ036-202000-
EAST ARKANSAS

CITY           SKY/WX    TMP DP  RH WIND       PRES   REMARKS
WEST MEMPHIS   MOSUNNY   93  76  57 S5        30.07F HX 105
$$

ARZ050-053-066-070-073-202000-
SOUTHWEST ARKANSAS

CITY           SKY/WX    TMP DP  RH WIND       PRES   REMARKS
ARKADELPHIA    MOCLDY    94  77  57 W5        30.08F HX 108
CAMDEN         MOSUNNY   95  73  49 CALM      30.08F HX 105
TEXARKANA      SUNNY     93  72  50 VRB6      30.09F HX 101
EL DORADO      SUNNY     94  72  48 VRB5      30.09F HX 102
DE QUEEN       MOSUNNY   94  76  55 S5        30.07F HX 106
$$

ARZ056-057-069-202000-
SOUTHEAST ARKANSAS

CITY           SKY/WX    TMP DP  RH WIND       PRES   REMARKS
PINE BLUFF     SUNNY     94  74  52 VRB6      30.09F HX 104
STUTTGART      MOSUNNY   97  66  36 SW3       30.10F HX 100
MONTICELLO     PTSUNNY   92  75  57 CALM      30.09F HX 103

$$






USA.gov is the U.S. government's official web portal to all federal, state and local government web resources and services.